Accueil
METAR-TAF:

METAR-TAF

Aéroports :

Montauk, New York, États-Unis

latitude: 41-04-23N, longitude: 071-55-24W, altitude: 2 m

Observation

Le bulletin a été fait il y a 1 heure et 6 minutes, à 00:54 UTC
Vent 7 kt de nord
Température 2°C
Humidité 51%
Pression 1021 hPa

METAR: KMTP 110054Z AUTO 01007KT 02/M07 A3016 RMK AO1 SLP212 T00221067

Heure: 21:00 (02:00 UTC)


TAF: absent

Observations et prévisions météorologiques de plus de 4000 aéroports (messages METAR et TAF).

Les stations disponibles sont représentées par des disques jaunes et rouges sur la carte.

Passer la souris dessus pour voir le nom de la station.

Cliquer dessus pour voir les observations et prévisions météorologiques.

Pour changer de carte: cliquez sur les boutons verts avec une croix noire pour zoomer, sur le bouton vert avec un tiret pour effectuer un zoom arrière, ou sur les flèches vertes pour les cartes adjacentes.


METAR-TAF: